| time (UTC) | temp C | wind direction | speed KPH | gust KPH | rain 1hr cm | rain 24hr cm | rain mn cm | humidity % | barometer mb |
| 20260506145826 | 15 | 247 | 1.6 | 3.2 | 0.00 | 0.00 | 0.00 | 85 | 1008.7 |
| 20260506145323 | 15 | 24 | 1.6 | 1.6 | 0.00 | 0.00 | 0.00 | 86 | 1008.6 |
| 20260506144820 | 15 | 32 | 1.6 | 1.6 | 0.00 | 0.00 | 0.00 | 86 | 1008.5 |
| 20260506144317 | 15 | 244 | 1.6 | 3.2 | 0.00 | 0.00 | 0.00 | 85 | 1008.5 |
| 20260506143815 | 15 | 353 | 3.2 | 4.8 | 0.00 | 0.00 | 0.00 | 86 | 1008.3 |
| 20260506143312 | 15 | 341 | 3.2 | 3.2 | 0.00 | 0.00 | 0.00 | 86 | 1008.3 |
| 20260506142810 | 15 | 65 | 4.8 | 4.8 | 0.00 | 0.00 | 0.00 | 86 | 1007.8 |
| 20260506142308 | 15 | 339 | 1.6 | 3.2 | 0.00 | 0.00 | 0.00 | 86 | 1008.0 |
| 20260506141806 | 15 | 18 | 3.2 | 3.2 | 0.00 | 0.00 | 0.00 | 86 | 1008.0 |
| 20260506141304 | 15 | 38 | 1.6 | 3.2 | 0.00 | 0.00 | 0.00 | 87 | 1007.9 |
| 20260506140801 | 15 | 39 | 3.2 | 3.2 | 0.00 | 0.00 | 0.00 | 87 | 1008.1 |
| 20260506140258 | 15 | 34 | 3.2 | 3.2 | 0.00 | 0.00 | 0.00 | 89 | 1008.0 |
| 20260506135755 | 15 | 11 | 3.2 | 3.2 | 0.00 | 0.00 | 0.00 | 88 | 1007.8 |
| 20260506135251 | 15 | 48 | 3.2 | 3.2 | 0.00 | 0.00 | 0.00 | 89 | 1007.6 |
| 20260506134748 | 15 | 207 | 3.2 | 4.8 | 0.00 | 0.00 | 0.00 | 89 | 1007.7 |
| 20260506134244 | 15 | 43 | 3.2 | 3.2 | 0.00 | 0.00 | 0.00 | 90 | 1007.8 |
| 20260506133742 | 15 | 354 | 8.0 | 12.9 | 0.00 | 0.00 | 0.00 | 89 | 1007.8 |
| 20260506133238 | 15 | 24 | 3.2 | 4.8 | 0.00 | 0.00 | 0.00 | 89 | 1007.7 |
| 20260506132735 | 15 | 326 | 0.0 | 1.6 | 0.00 | 0.00 | 0.00 | 88 | 1007.7 |
| 20260506132232 | 16 | 18 | 3.2 | 3.2 | 0.00 | 0.00 | 0.00 | 87 | 1007.4 |
| 20260506131730 | 16 | 47 | 1.6 | 1.6 | 0.00 | 0.00 | 0.00 | 87 | 1007.5 |
| 20260506131226 | 16 | 12 | 1.6 | 1.6 | 0.00 | 0.00 | 0.00 | 87 | 1007.5 |
| 20260506130723 | 16 | 280 | 1.6 | 3.2 | 0.00 | 0.00 | 0.00 | 87 | 1007.4 |
| 20260506130220 | 16 | 12 | 0.0 | 1.6 | 0.00 | 0.00 | 0.00 | 87 | 1007.2 |
| 20260506125718 | 16 | 237 | 1.6 | 1.6 | 0.00 | 0.00 | 0.00 | 86 | 1007.2 |
| 20260506125215 | 16 | 31 | 0.0 | 1.6 | 0.00 | 0.00 | 0.00 | 87 | 1007.2 |
| 20260506124713 | 16 | 35 | 1.6 | 1.6 | 0.00 | 0.00 | 0.00 | 86 | 1006.8 |
| 20260506124211 | 17 | 33 | 3.2 | 4.8 | 0.00 | 0.00 | 0.00 | 86 | 1006.9 |
| 20260506123708 | 17 | 233 | 1.6 | 1.6 | 0.00 | 0.00 | 0.00 | 87 | 1007.1 |
| 20260506123207 | 17 | 30 | 0.0 | 1.6 | 0.00 | 0.00 | 0.00 | 87 | 1006.4 |
| 20260506122703 | 17 | 317 | 0.0 | 0.0 | 0.00 | 0.00 | 0.00 | 87 | 1006.6 |
| 20260506122201 | 17 | 354 | 1.6 | 3.2 | 0.00 | 0.00 | 0.00 | 87 | 1006.6 |
| 20260506121659 | 17 | 18 | 3.2 | 3.2 | 0.00 | 0.00 | 0.00 | 87 | 1006.5 |
| 20260506121155 | 17 | 40 | 3.2 | 3.2 | 0.00 | 0.00 | 0.00 | 86 | 1006.8 |
| 20260506120653 | 17 | 41 | 1.6 | 1.6 | 0.00 | 0.00 | 0.00 | 86 | 1006.2 |
| 20260506120150 | 17 | 342 | 1.6 | 1.6 | 0.00 | 0.00 | 0.00 | 85 | 1006.4 |
| 20260506115648 | 18 | 20 | 1.6 | 1.6 | 0.00 | 0.00 | 0.00 | 85 | 1006.0 |
| 20260506115146 | 18 | 45 | 1.6 | 1.6 | 0.00 | 0.00 | 0.00 | 84 | 1006.0 |
| 20260506114643 | 18 | 20 | 0.0 | 1.6 | 0.00 | 0.00 | 0.00 | 83 | 1005.8 |
| 20260506114141 | 18 | 9 | 1.6 | 1.6 | 0.00 | 0.00 | 0.00 | 82 | 1005.7 |
| 20260506113639 | 19 | 252 | 1.6 | 1.6 | 0.00 | 0.00 | 0.00 | 81 | 1006.0 |
| 20260506113136 | 19 | 45 | 1.6 | 1.6 | 0.00 | 0.00 | 0.00 | 82 | 1005.7 |
| 20260506112632 | 20 | 25 | 1.6 | 3.2 | 0.00 | 0.00 | 0.00 | 81 | 1005.6 |
| 20260506112130 | 20 | 258 | 0.0 | 1.6 | 0.00 | 0.00 | 0.00 | 81 | 1005.2 |
| 20260506111627 | 20 | 68 | 0.0 | 1.6 | 0.00 | 0.00 | 0.00 | 80 | 1005.3 |
| 20260506111125 | 20 | 357 | 1.6 | 1.6 | 0.00 | 0.00 | 0.00 | 80 | 1005.2 |
| 20260506110622 | 20 | 226 | 0.0 | 0.0 | 0.00 | 0.00 | 0.00 | 80 | 1005.1 |
| 20260506110120 | 21 | 278 | 3.2 | 3.2 | 0.00 | 0.00 | 0.00 | 81 | 1005.2 |
| 20260506105616 | 20 | 261 | 0.0 | 1.6 | 0.00 | 0.00 | 0.00 | 81 | 1005.2 |
| 20260506105113 | 21 | 350 | 1.6 | 1.6 | 0.00 | 0.00 | 0.00 | 80 | 1005.0 |
| 20260506104611 | 21 | 232 | 0.0 | 1.6 | 0.00 | 0.00 | 0.00 | 80 | 1004.8 |
| 20260506104108 | 21 | 259 | 1.6 | 1.6 | 0.00 | 0.00 | 0.00 | 80 | 1005.0 |
| 20260506103606 | 22 | 38 | 1.6 | 3.2 | 0.00 | 0.00 | 0.00 | 79 | 1004.8 |
| 20260506103102 | 23 | 6 | 1.6 | 1.6 | 0.00 | 0.00 | 0.00 | 79 | 1004.8 |
| 20260506102600 | 23 | 248 | 0.0 | 1.6 | 0.00 | 0.00 | 0.00 | 88 | 1004.6 |
| 20260506102058 | 23 | 243 | 0.0 | 1.6 | 0.00 | 0.00 | 0.00 | 87 | 1004.6 |
| 20260506101554 | 23 | 250 | 1.6 | 1.6 | 0.00 | 0.00 | 0.00 | 87 | 1004.7 |
| 20260506101051 | 23 | 257 | 0.0 | 0.0 | 0.00 | 0.00 | 0.00 | 88 | 1004.6 |
| 20260506100549 | 23 | 249 | 3.2 | 3.2 | 0.00 | 0.00 | 0.00 | 88 | 1004.6 |
| 20260506100047 | 23 | 222 | 1.6 | 1.6 | 0.00 | 0.00 | 0.00 | 88 | 1004.4 |
| 20260506095546 | 23 | 225 | 3.2 | 3.2 | 0.00 | 0.00 | 0.00 | 88 | 1004.6 |
| 20260506095042 | 23 | 231 | 1.6 | 3.2 | 0.00 | 0.00 | 0.00 | 88 | 1004.4 |
| 20260506094540 | 23 | 258 | 1.6 | 1.6 | 0.00 | 0.00 | 0.00 | 87 | 1004.4 |
| 20260506094037 | 23 | 133 | 3.2 | 3.2 | 0.00 | 0.00 | 0.00 | 87 | 1004.4 |
| 20260506093536 | 23 | 224 | 1.6 | 1.6 | 0.00 | 0.00 | 0.00 | 87 | 1004.4 |
| 20260506093033 | 23 | 230 | 1.6 | 3.2 | 0.00 | 0.00 | 0.00 | 87 | 1004.4 |
| 20260506092530 | 23 | 184 | 0.0 | 1.6 | 0.00 | 0.00 | 0.00 | 87 | 1004.3 |
| 20260506092027 | 23 | 257 | 1.6 | 1.6 | 0.00 | 0.00 | 0.00 | 87 | 1004.4 |
| 20260506091525 | 23 | 231 | 0.0 | 1.6 | 0.00 | 0.00 | 0.00 | 88 | 1004.3 |
| 20260506091022 | 23 | 225 | 1.6 | 1.6 | 0.00 | 0.00 | 0.00 | 88 | 1004.3 |
| 20260506090520 | 23 | 208 | 1.6 | 1.6 | 0.00 | 0.00 | 0.00 | 88 | 1004.2 |
| 20260506090016 | 23 | 233 | 1.6 | 1.6 | 0.00 | 0.00 | 0.00 | 88 | 1004.5 |
| 20260506085513 | 23 | 247 | 1.6 | 1.6 | 0.00 | 0.00 | 0.00 | 88 | 1004.2 |
| 20260506085009 | 23 | 321 | 1.6 | 1.6 | 0.00 | 0.00 | 0.00 | 88 | 1004.3 |
| 20260506084506 | 23 | 227 | 3.2 | 3.2 | 0.00 | 0.00 | 0.00 | 88 | 1004.2 |
| 20260506084002 | 23 | 256 | 1.6 | 1.6 | 0.00 | 0.00 | 0.00 | 88 | 1004.2 |
| 20260506083500 | 23 | 249 | 1.6 | 3.2 | 0.00 | 0.00 | 0.00 | 88 | 1004.1 |
| 20260506082957 | 23 | 252 | 1.6 | 1.6 | 0.00 | 0.00 | 0.00 | 88 | 1004.2 |
| 20260506082454 | 23 | 235 | 0.0 | 1.6 | 0.00 | 0.00 | 0.00 | 88 | 1004.2 |
| 20260506081949 | 23 | 276 | 3.2 | 3.2 | 0.00 | 0.00 | 0.00 | 88 | 1004.0 |
| 20260506081448 | 23 | 247 | 3.2 | 4.8 | 0.00 | 0.00 | 0.00 | 88 | 1004.2 |
| 20260506080945 | 23 | 235 | 3.2 | 3.2 | 0.00 | 0.00 | 0.00 | 88 | 1004.2 |
| 20260506080442 | 23 | 181 | 3.2 | 3.2 | 0.00 | 0.00 | 0.00 | 88 | 1004.2 |
| 20260506073426 | 23 | 236 | 1.6 | 3.2 | 0.00 | 0.00 | 0.00 | 87 | 1004.1 |
| 20260506072923 | 23 | 254 | 1.6 | 1.6 | 0.00 | 0.00 | 0.00 | 87 | 1004.3 |
| 20260506072420 | 23 | 264 | 1.6 | 3.2 | 0.00 | 0.00 | 0.00 | 87 | 1004.4 |
| 20260506071918 | 23 | 253 | 0.0 | 0.0 | 0.00 | 0.00 | 0.00 | 87 | 1004.3 |
| 20260506071416 | 23 | 251 | 1.6 | 3.2 | 0.00 | 0.00 | 0.00 | 87 | 1004.1 |
| 20260506070912 | 23 | 254 | 1.6 | 1.6 | 0.00 | 0.00 | 0.00 | 87 | 1004.2 |
| 20260506070409 | 23 | 274 | 1.6 | 3.2 | 0.00 | 0.00 | 0.00 | 86 | 1004.1 |
| 20260506062347 | 23 | 242 | 0.0 | 1.6 | 0.00 | 0.00 | 0.00 | 85 | 1004.4 |
| 20260506061842 | 23 | 298 | 1.6 | 1.6 | 0.00 | 0.00 | 0.00 | 85 | 1004.4 |
| 20260506061339 | 23 | 235 | 1.6 | 3.2 | 0.00 | 0.00 | 0.00 | 85 | 1004.1 |
| 20260506060837 | 24 | 239 | 1.6 | 3.2 | 0.00 | 0.00 | 0.00 | 85 | 1004.0 |
| 20260506060335 | 24 | 235 | 1.6 | 3.2 | 0.00 | 0.00 | 0.00 | 84 | 1004.3 |
| 20260506051307 | 25 | 236 | 1.6 | 1.6 | 0.00 | 0.00 | 0.00 | 82 | 1004.4 |
| 20260506050805 | 25 | 232 | 3.2 | 4.8 | 0.00 | 0.00 | 0.00 | 82 | 1004.1 |
| 20260506050302 | 25 | 279 | 8.0 | 12.9 | 0.00 | 0.00 | 0.00 | 82 | 1004.0 |
| 20260506044752 | 25 | 224 | 4.8 | 9.7 | 0.00 | 0.00 | 0.00 | 82 | 1004.1 |
| 20260506044250 | 25 | 254 | 1.6 | 1.6 | 0.00 | 0.00 | 0.00 | 81 | 1004.0 |
| 20260506043747 | 25 | 295 | 3.2 | 3.2 | 0.00 | 0.00 | 0.00 | 82 | 1004.1 |
| 20260506043244 | 25 | 245 | 1.6 | 1.6 | 0.00 | 0.00 | 0.00 | 82 | 1004.0 |
| 20260506042743 | 25 | 182 | 3.2 | 4.8 | 0.00 | 0.00 | 0.00 | 82 | 1004.0 |
| 20260506042242 | 25 | 245 | 1.6 | 3.2 | 0.00 | 0.00 | 0.00 | 82 | 1004.0 |
| 20260506041739 | 25 | 320 | 0.0 | 1.6 | 0.00 | 0.00 | 0.00 | 81 | 1003.6 |
| 20260506041236 | 25 | 230 | 1.6 | 3.2 | 0.00 | 0.00 | 0.00 | 82 | 1003.5 |
| 20260506040734 | 25 | 258 | 1.6 | 1.6 | 0.00 | 0.00 | 0.00 | 82 | 1003.5 |
| 20260506040231 | 25 | 229 | 1.6 | 1.6 | 0.00 | 0.00 | 0.00 | 81 | 1003.5 |
| 20260506035727 | 25 | 219 | 1.6 | 1.6 | 0.00 | 0.00 | 0.00 | 81 | 1003.4 |
| 20260506035224 | 25 | 176 | 1.6 | 1.6 | 0.00 | 0.00 | 0.00 | 81 | 1003.1 |
| 20260506034721 | 25 | 212 | 1.6 | 1.6 | 0.00 | 0.00 | 0.00 | 81 | 1003.0 |
| 20260506034218 | 25 | 104 | 4.8 | 4.8 | 0.00 | 0.00 | 0.00 | 81 | 1003.2 |
| 20260506033716 | 25 | 119 | 1.6 | 1.6 | 0.00 | 0.00 | 0.00 | 81 | 1003.2 |
| 20260506033212 | 25 | 263 | 1.6 | 1.6 | 0.00 | 0.00 | 0.00 | 80 | 1002.8 |
| 20260506032709 | 25 | 231 | 1.6 | 3.2 | 0.00 | 0.00 | 0.00 | 80 | 1002.9 |
| 20260506032206 | 25 | 250 | 1.6 | 1.6 | 0.00 | 0.00 | 0.00 | 80 | 1002.7 |
| 20260506031703 | 25 | 236 | 0.0 | 1.6 | 0.00 | 0.00 | 0.00 | 80 | 1002.9 |
| 20260506031200 | 25 | 190 | 1.6 | 1.6 | 0.00 | 0.00 | 0.00 | 80 | 1003.0 |
| 20260506030659 | 25 | 198 | 1.6 | 1.6 | 0.00 | 0.00 | 0.00 | 80 | 1002.7 |
| 20260506030155 | 25 | 174 | 0.0 | 1.6 | 0.00 | 0.00 | 0.00 | 79 | 1002.5 |
| 20260506025652 | 26 | 223 | 1.6 | 3.2 | 0.00 | 0.00 | 0.00 | 79 | 1002.7 |
| 20260506025148 | 26 | 248 | 1.6 | 1.6 | 0.00 | 0.00 | 0.00 | 78 | 1002.8 |
| 20260506024646 | 26 | 249 | 1.6 | 1.6 | 0.00 | 0.00 | 0.00 | 78 | 1002.7 |
| 20260506024142 | 26 | 267 | 1.6 | 3.2 | 0.00 | 0.00 | 0.00 | 78 | 1002.7 |
| 20260506023638 | 26 | 180 | 3.2 | 3.2 | 0.00 | 0.00 | 0.00 | 78 | 1002.6 |
| 20260506023136 | 26 | 258 | 1.6 | 3.2 | 0.00 | 0.00 | 0.00 | 78 | 1002.6 |
| 20260506022633 | 26 | 249 | 1.6 | 1.6 | 0.00 | 0.00 | 0.00 | 78 | 1002.5 |
| 20260506022130 | 26 | 198 | 0.0 | 0.0 | 0.00 | 0.00 | 0.00 | 78 | 1002.5 |
| 20260506021628 | 26 | 231 | 1.6 | 1.6 | 0.00 | 0.00 | 0.00 | 78 | 1002.6 |
| 20260506021125 | 26 | 246 | 1.6 | 3.2 | 0.00 | 0.00 | 0.00 | 77 | 1002.5 |
| 20260506020622 | 26 | 258 | 1.6 | 1.6 | 0.00 | 0.00 | 0.00 | 77 | 1002.6 |
| 20260506020120 | 26 | 221 | 1.6 | 1.6 | 0.00 | 0.00 | 0.00 | 77 | 1002.5 |
| 20260506015617 | 26 | 168 | 1.6 | 1.6 | 0.00 | 0.00 | 0.00 | 77 | 1002.6 |
| 20260506015114 | 26 | 257 | 1.6 | 1.6 | 0.00 | 0.00 | 0.00 | 76 | 1002.3 |
| 20260506014612 | 26 | 269 | 1.6 | 1.6 | 0.00 | 0.00 | 0.00 | 76 | 1002.3 |
| 20260506014107 | 26 | 198 | 1.6 | 3.2 | 0.00 | 0.00 | 0.00 | 76 | 1002.3 |
| 20260506013605 | 26 | 259 | 1.6 | 3.2 | 0.00 | 0.00 | 0.00 | 75 | 1002.4 |
| 20260506013102 | 26 | 243 | 1.6 | 3.2 | 0.00 | 0.00 | 0.00 | 75 | 1002.2 |
| 20260506012558 | 26 | 268 | 1.6 | 1.6 | 0.00 | 0.00 | 0.00 | 76 | 1002.2 |
| 20260506012055 | 27 | 255 | 1.6 | 1.6 | 0.00 | 0.00 | 0.00 | 75 | 1002.3 |
| 20260506011553 | 27 | 244 | 1.6 | 1.6 | 0.00 | 0.00 | 0.00 | 75 | 1002.1 |
| 20260506011048 | 26 | 258 | 1.6 | 3.2 | 0.00 | 0.00 | 0.00 | 75 | 1002.0 |
| 20260506010542 | 27 | 234 | 1.6 | 1.6 | 0.00 | 0.00 | 0.00 | 74 | 1002.0 |
| 20260506010038 | 27 | 245 | 1.6 | 1.6 | 0.00 | 0.00 | 0.00 | 74 | 1002.0 |
| 20260506005535 | 27 | 219 | 0.0 | 1.6 | 0.00 | 0.00 | 0.00 | 74 | 1002.0 |
| 20260506005031 | 27 | 241 | 1.6 | 1.6 | 0.00 | 0.00 | 0.00 | 74 | 1001.9 |
| 20260506004529 | 27 | 238 | 1.6 | 1.6 | 0.00 | 0.00 | 0.00 | 73 | 1001.4 |
| 20260506004026 | 27 | 276 | 1.6 | 1.6 | 0.00 | 0.00 | 0.00 | 73 | 1001.5 |
| 20260506003522 | 27 | 267 | 1.6 | 3.2 | 0.00 | 0.00 | 0.00 | 73 | 1001.5 |
| 20260506003018 | 27 | 235 | 1.6 | 3.2 | 0.00 | 0.00 | 0.00 | 72 | 1001.5 |
| 20260506002514 | 27 | 261 | 1.6 | 1.6 | 0.00 | 0.00 | 0.00 | 72 | 1001.3 |
| 20260506002010 | 27 | 239 | 1.6 | 3.2 | 0.00 | 0.00 | 0.00 | 72 | 1001.1 |
| 20260506001507 | 27 | 264 | 3.2 | 4.8 | 0.00 | 0.00 | 0.00 | 71 | 1001.4 |
| 20260506001004 | 27 | 267 | 1.6 | 1.6 | 0.00 | 0.00 | 0.00 | 71 | 1001.5 |
| 20260506000502 | 27 | 247 | 1.6 | 3.2 | 0.00 | 0.00 | 0.00 | 71 | 1001.5 |
| 20260505235958 | 28 | 242 | 3.2 | 3.2 | 0.00 | 0.00 | 0.00 | 71 | 1001.4 |
| 20260505235456 | 28 | 191 | 1.6 | 1.6 | 0.00 | 0.00 | 0.00 | 70 | 1001.3 |
| 20260505234953 | 28 | 242 | 3.2 | 3.2 | 0.00 | 0.00 | 0.00 | 70 | 1001.6 |
| 20260505234450 | 28 | 224 | 0.0 | 1.6 | 0.00 | 0.00 | 0.00 | 70 | 1001.4 |
| 20260505233947 | 28 | 245 | 1.6 | 1.6 | 0.00 | 0.00 | 0.00 | 70 | 1001.3 |
| 20260505233444 | 28 | 234 | 1.6 | 1.6 | 0.00 | 0.00 | 0.00 | 70 | 1001.2 |
| 20260505232942 | 28 | 254 | 3.2 | 3.2 | 0.00 | 0.00 | 0.00 | 69 | 1001.3 |
| 20260505232440 | 28 | 135 | 3.2 | 4.8 | 0.00 | 0.00 | 0.00 | 69 | 1001.3 |
| 20260505231937 | 28 | 244 | 3.2 | 3.2 | 0.00 | 0.00 | 0.00 | 69 | 1001.2 |
| 20260505231434 | 28 | 279 | 6.4 | 6.4 | 0.00 | 0.00 | 0.00 | 69 | 1001.4 |
| 20260505230932 | 28 | 279 | 3.2 | 4.8 | 0.00 | 0.00 | 0.00 | 69 | 1001.1 |
| 20260505230429 | 28 | 249 | 3.2 | 3.2 | 0.00 | 0.00 | 0.00 | 69 | 1001.0 |
| 20260505225925 | 28 | 335 | 3.2 | 4.8 | 0.00 | 0.00 | 0.00 | 68 | 1001.2 |
| 20260505225423 | 28 | 274 | 4.8 | 6.4 | 0.00 | 0.00 | 0.00 | 68 | 1001.0 |
| 20260505224918 | 28 | 237 | 4.8 | 6.4 | 0.00 | 0.00 | 0.00 | 68 | 1001.1 |
| 20260505224416 | 28 | 240 | 3.2 | 4.8 | 0.00 | 0.00 | 0.00 | 68 | 1001.1 |
| 20260505223912 | 28 | 183 | 3.2 | 3.2 | 0.00 | 0.00 | 0.00 | 68 | 1000.9 |
| 20260505223410 | 28 | 288 | 3.2 | 3.2 | 0.00 | 0.00 | 0.00 | 68 | 1001.1 |
| 20260505222906 | 28 | 238 | 4.8 | 6.4 | 0.00 | 0.00 | 0.00 | 68 | 1001.1 |
| 20260505222402 | 28 | 95 | 4.8 | 6.4 | 0.00 | 0.00 | 0.00 | 68 | 1000.7 |
| 20260505221859 | 28 | 265 | 3.2 | 3.2 | 0.00 | 0.00 | 0.00 | 68 | 1000.9 |
| 20260505221355 | 28 | 217 | 6.4 | 9.7 | 0.00 | 0.00 | 0.00 | 67 | 1000.9 |
| 20260505220853 | 28 | 244 | 6.4 | 6.4 | 0.00 | 0.00 | 0.00 | 68 | 1001.0 |
| 20260505220350 | 28 | 179 | 4.8 | 9.7 | 0.00 | 0.00 | 0.00 | 68 | 1001.0 |
| 20260505215847 | 28 | 286 | 6.4 | 11.3 | 0.00 | 0.00 | 0.00 | 68 | 1001.1 |
| 20260505215345 | 28 | 318 | 3.2 | 3.2 | 0.00 | 0.00 | 0.00 | 68 | 1001.2 |
| 20260505214843 | 28 | 254 | 3.2 | 3.2 | 0.00 | 0.00 | 0.00 | 68 | 1001.3 |
| 20260505214340 | 28 | 239 | 6.4 | 9.7 | 0.00 | 0.00 | 0.00 | 67 | 1001.4 |
| 20260505213837 | 28 | 233 | 6.4 | 6.4 | 0.00 | 0.00 | 0.00 | 68 | 1001.6 |
| 20260505213335 | 28 | 240 | 1.6 | 3.2 | 0.00 | 0.00 | 0.00 | 68 | 1001.5 |
| 20260505212831 | 28 | 229 | 1.6 | 3.2 | 0.00 | 0.00 | 0.00 | 69 | 1001.6 |
| 20260505212328 | 28 | 294 | 6.4 | 6.4 | 0.00 | 0.00 | 0.00 | 68 | 1001.7 |
| 20260505211824 | 28 | 311 | 3.2 | 4.8 | 0.00 | 0.00 | 0.00 | 68 | 1001.8 |
| 20260505211322 | 28 | 255 | 8.0 | 12.9 | 0.00 | 0.00 | 0.00 | 68 | 1001.7 |
| 20260505210818 | 28 | 262 | 3.2 | 3.2 | 0.00 | 0.00 | 0.00 | 69 | 1001.9 |
| 20260505210315 | 28 | 291 | 6.4 | 9.7 | 0.00 | 0.00 | 0.00 | 68 | 1001.9 |
| 20260505205812 | 27 | 133 | 3.2 | 4.8 | 0.00 | 0.00 | 0.00 | 69 | 1001.8 |
| 20260505205310 | 27 | 169 | 4.8 | 6.4 | 0.00 | 0.00 | 0.00 | 70 | 1001.9 |
| 20260505204807 | 27 | 176 | 3.2 | 4.8 | 0.00 | 0.00 | 0.00 | 69 | 1001.9 |
| 20260505204305 | 27 | 281 | 6.4 | 9.7 | 0.00 | 0.00 | 0.00 | 70 | 1001.9 |
| 20260505203802 | 27 | 257 | 3.2 | 4.8 | 0.00 | 0.00 | 0.00 | 70 | 1002.0 |
| 20260505203259 | 27 | 305 | 8.0 | 12.9 | 0.00 | 0.00 | 0.00 | 69 | 1001.9 |
| 20260505202754 | 28 | 287 | 4.8 | 6.4 | 0.00 | 0.00 | 0.00 | 68 | 1002.0 |
| 20260505202251 | 27 | 240 | 4.8 | 4.8 | 0.00 | 0.00 | 0.00 | 69 | 1002.3 |
| 20260505201747 | 27 | 167 | 8.0 | 12.9 | 0.00 | 0.00 | 0.00 | 70 | 1002.3 |
| 20260505201245 | 27 | 261 | 3.2 | 3.2 | 0.00 | 0.00 | 0.00 | 69 | 1002.3 |
| 20260505200743 | 27 | 357 | 4.8 | 6.4 | 0.00 | 0.00 | 0.00 | 70 | 1002.1 |
| 20260505200240 | 27 | 278 | 3.2 | 3.2 | 0.00 | 0.00 | 0.00 | 71 | 1002.2 |
| 20260505195735 | 27 | 285 | 4.8 | 4.8 | 0.00 | 0.00 | 0.00 | 70 | 1002.3 |
| 20260505195233 | 27 | 293 | 4.8 | 6.4 | 0.00 | 0.00 | 0.00 | 69 | 1002.3 |
| 20260505194730 | 27 | 254 | 6.4 | 9.7 | 0.00 | 0.00 | 0.00 | 69 | 1002.5 |
| 20260505194227 | 27 | 154 | 8.0 | 11.3 | 0.00 | 0.00 | 0.00 | 69 | 1002.4 |
| 20260505193722 | 27 | 243 | 6.4 | 6.4 | 0.00 | 0.00 | 0.00 | 69 | 1002.4 |
| 20260505193220 | 27 | 281 | 3.2 | 4.8 | 0.00 | 0.00 | 0.00 | 71 | 1002.5 |
| 20260505192718 | 27 | 171 | 6.4 | 9.7 | 0.00 | 0.00 | 0.00 | 72 | 1002.6 |
| 20260505192216 | 26 | 313 | 6.4 | 11.3 | 0.00 | 0.00 | 0.00 | 72 | 1002.4 |
| 20260505191714 | 27 | 254 | 9.7 | 14.5 | 0.00 | 0.00 | 0.00 | 71 | 1002.5 |
| 20260505191212 | 26 | 259 | 3.2 | 3.2 | 0.00 | 0.00 | 0.00 | 72 | 1002.7 |
| 20260505190708 | 26 | 265 | 4.8 | 9.7 | 0.00 | 0.00 | 0.00 | 73 | 1002.6 |
| 20260505190207 | 26 | 244 | 4.8 | 6.4 | 0.00 | 0.00 | 0.00 | 73 | 1002.5 |
| 20260505185704 | 26 | 245 | 9.7 | 12.9 | 0.00 | 0.00 | 0.00 | 73 | 1002.6 |
| 20260505185201 | 26 | 231 | 6.4 | 6.4 | 0.00 | 0.00 | 0.00 | 74 | 1002.6 |
| 20260505184657 | 26 | 205 | 9.7 | 12.9 | 0.00 | 0.00 | 0.00 | 74 | 1002.8 |
| 20260505184154 | 26 | 257 | 3.2 | 4.8 | 0.00 | 0.00 | 0.00 | 74 | 1003.0 |
| 20260505183651 | 26 | 251 | 4.8 | 4.8 | 0.00 | 0.00 | 0.00 | 74 | 1002.6 |
| 20260505183149 | 26 | 268 | 9.7 | 16.1 | 0.00 | 0.00 | 0.00 | 73 | 1002.9 |
| 20260505182645 | 26 | 259 | 3.2 | 4.8 | 0.00 | 0.00 | 0.00 | 72 | 1003.0 |
| 20260505182142 | 26 | 242 | 4.8 | 6.4 | 0.00 | 0.00 | 0.00 | 72 | 1002.8 |
| 20260505181638 | 26 | 272 | 6.4 | 12.9 | 0.00 | 0.00 | 0.00 | 74 | 1002.7 |
| 20260505181136 | 26 | 238 | 4.8 | 4.8 | 0.00 | 0.00 | 0.00 | 73 | 1003.2 |
| 20260505180632 | 25 | 236 | 6.4 | 11.3 | 0.00 | 0.00 | 0.00 | 74 | 1002.9 |
| 20260505180130 | 25 | 250 | 9.7 | 12.9 | 0.00 | 0.00 | 0.00 | 74 | 1003.1 |
| 20260505175625 | 25 | 284 | 4.8 | 6.4 | 0.00 | 0.00 | 0.00 | 75 | 1003.2 |
| 20260505175122 | 25 | 254 | 3.2 | 3.2 | 0.00 | 0.00 | 0.00 | 75 | 1003.2 |
| 20260505174618 | 25 | 248 | 1.6 | 3.2 | 0.00 | 0.00 | 0.00 | 75 | 1003.3 |
| 20260505174115 | 25 | 258 | 8.0 | 12.9 | 0.00 | 0.00 | 0.00 | 75 | 1002.9 |
| 20260505173611 | 25 | 266 | 4.8 | 6.4 | 0.00 | 0.00 | 0.00 | 74 | 1003.1 |
| 20260505173108 | 25 | 292 | 3.2 | 4.8 | 0.00 | 0.00 | 0.00 | 75 | 1002.9 |
| 20260505172606 | 25 | 264 | 8.0 | 11.3 | 0.00 | 0.00 | 0.00 | 75 | 1003.0 |
| 20260505172103 | 25 | 261 | 8.0 | 11.3 | 0.00 | 0.00 | 0.00 | 75 | 1003.0 |
| 20260505171557 | 25 | 292 | 8.0 | 12.9 | 0.00 | 0.00 | 0.00 | 76 | 1003.2 |
| 20260505171054 | 25 | 257 | 3.2 | 4.8 | 0.00 | 0.00 | 0.00 | 76 | 1003.1 |
| 20260505170551 | 25 | 247 | 4.8 | 6.4 | 0.00 | 0.00 | 0.00 | 76 | 1003.1 |
| 20260505170047 | 25 | 247 | 4.8 | 9.7 | 0.00 | 0.00 | 0.00 | 76 | 1003.0 |
| 20260505165543 | 25 | 229 | 8.0 | 9.7 | 0.00 | 0.00 | 0.00 | 76 | 1003.4 |
| 20260505165039 | 25 | 72 | 6.4 | 9.7 | 0.00 | 0.00 | 0.00 | 76 | 1003.3 |
| 20260505164535 | 25 | 244 | 9.7 | 12.9 | 0.00 | 0.00 | 0.00 | 76 | 1003.2 |
| 20260505164033 | 25 | 280 | 6.4 | 9.7 | 0.00 | 0.00 | 0.00 | 77 | 1003.3 |
| 20260505163531 | 24 | 297 | 4.8 | 6.4 | 0.00 | 0.00 | 0.00 | 77 | 1003.4 |
| 20260505163027 | 24 | 224 | 6.4 | 6.4 | 0.00 | 0.00 | 0.00 | 77 | 1003.5 |
| 20260505162521 | 24 | 257 | 8.0 | 11.3 | 0.00 | 0.00 | 0.00 | 78 | 1003.6 |
| 20260505162018 | 23 | 306 | 3.2 | 4.8 | 0.00 | 0.00 | 0.00 | 79 | 1003.4 |
| 20260505161514 | 23 | 276 | 4.8 | 6.4 | 0.00 | 0.00 | 0.00 | 80 | 1003.7 |
| 20260505161012 | 23 | 234 | 3.2 | 3.2 | 0.00 | 0.00 | 0.00 | 80 | 1003.3 |
| 20260505160510 | 23 | 237 | 4.8 | 4.8 | 0.00 | 0.00 | 0.00 | 80 | 1003.3 |
| 20260505152940 | 22 | 274 | 6.4 | 6.4 | 0.00 | 0.00 | 0.00 | 81 | 1003.1 |
| 20260505152437 | 22 | 271 | 6.4 | 11.3 | 0.00 | 0.00 | 0.00 | 81 | 1003.3 |
| 20260505151938 | 22 | 183 | 4.8 | 4.8 | 0.00 | 0.00 | 0.00 | 81 | 1003.3 |
| 20260505151433 | 22 | 281 | 8.0 | 9.7 | 0.00 | 0.00 | 0.00 | 81 | 1003.5 |
| 20260505150931 | 22 | 293 | 4.8 | 6.4 | 0.00 | 0.00 | 0.00 | 81 | 1003.6 |
| 20260505150427 | 22 | 264 | 4.8 | 6.4 | 0.00 | 0.00 | 0.00 | 81 | 1003.2 |